Weather History for EGBB - September, 2013

Change the Weather History Date:

Sunday, September 1, 2013

  Actual Average Record
Temperature  
Mean Temperature 60 °F -  
Max Temperature 71 °F 64 °F 73 °F (1999)
Min Temperature 48 °F 48 °F 39 °F (2011)
Degree Days  
Heating Degree Days 6    
Growing Degree Days 10 (Base 50)    
Moisture  
Dew Point 47 °F    
Average Humidity 69    
Maximum Humidity 87    
Minimum Humidity 43    
Precipitation  
Precipitation 0.00 in 0.07 in - ()
Sea Level Pressure  
Sea Level Pressure 30.38 in    
Wind  
Wind Speed 8 mph ()    
Max Wind Speed 16 mph    
Max Gust Speed -    
Visibility 6.2 miles    
Events      
Averages and records for this station are not official NWS values.
T = Trace of Precipitation, MM = Missing Value Source: Averaged Metar Reports

Daily Weather History Graph

Daily Weather History Graph

Search for Another Location

Airport or City:

Trip Planner

Search our weather history database for the weather conditions in past years. The results will help you decide how hot, cold, wet, or windy it might be!

Date:

Astronomy

Sep. 01, 2013 Rise Set
Actual Time 6:18 AM BST 7:54 PM BST
Civil Twilight 5:42 AM BST 8:30 PM BST
Nautical Twilight 4:58 AM BST 9:14 PM BST
Astronomical Twilight 4:09 AM BST 10:02 PM BST
Moon 2:06 AM BST (9/1) 5:39 PM BST (9/1)
Length of Visible Light 14h 47m
Length of Day
13h 36m
Waning Crescent, 15% of the Moon is Illuminated
Sep 1
Waning Crescent
Sep 5
New
Sep 12
First Quarter
Sep 19
Full
Sep 27
Last Quarter

Hourly Weather History & Observations

Time (BST) Temp. Dew Point Humidity Pressure Visibility Wind Dir Wind Speed Gust Speed Precip Events Conditions
12:20 AM 50.0 °F 44.6 °F 82% 30.42 in - West 4.6 mph - N/A   Clear
12:50 AM 51.8 °F 44.6 °F 76% 30.42 in - West 6.9 mph - N/A   Clear
1:20 AM 51.8 °F 44.6 °F 76% 30.42 in - WSW 5.8 mph - N/A   Clear
1:50 AM 50.0 °F 44.6 °F 82% 30.42 in 6.2 mi West 3.5 mph - N/A   Unknown
2:20 AM 50.0 °F 44.6 °F 82% 30.42 in 6.2 mi West 5.8 mph - N/A   Unknown
2:50 AM 51.8 °F 46.4 °F 82% 30.42 in 6.2 mi West 6.9 mph - N/A   Unknown
3:20 AM 50.0 °F 44.6 °F 82% 30.42 in - WSW 6.9 mph - N/A   Clear
3:50 AM 50.0 °F 44.6 °F 82% 30.42 in - West 6.9 mph - N/A   Clear
4:20 AM 50.0 °F 44.6 °F 82% 30.39 in - West 5.8 mph - N/A   Clear
4:50 AM 50.0 °F 44.6 °F 82% 30.39 in - WSW 5.8 mph - N/A   Clear
5:20 AM 50.0 °F 44.6 °F 82% 30.39 in - WSW 6.9 mph - N/A   Clear
5:50 AM 50.0 °F 44.6 °F 82% 30.39 in - WSW 5.8 mph - N/A   Clear
6:20 AM 48.2 °F 44.6 °F 87% 30.39 in - WSW 6.9 mph - N/A   Clear
6:50 AM 50.0 °F 44.6 °F 82% 30.39 in - SW 6.9 mph - N/A   Clear
7:20 AM 50.0 °F 46.4 °F 87% 30.39 in - SW 6.9 mph - N/A   Clear
7:50 AM 50.0 °F 46.4 °F 87% 30.39 in - WSW 6.9 mph - N/A   Clear
8:20 AM 53.6 °F 46.4 °F 77% 30.42 in - West 9.2 mph - N/A   Clear
8:50 AM 53.6 °F 48.2 °F 82% 30.42 in - WSW 9.2 mph - N/A   Clear
9:20 AM 55.4 °F 48.2 °F 77% 30.42 in - WSW 9.2 mph - N/A   Clear
9:50 AM 57.2 °F 48.2 °F 72% 30.42 in - West 11.5 mph - N/A   Clear
10:20 AM 60.8 °F 48.2 °F 63% 30.39 in - WNW 11.5 mph - N/A   Clear
10:50 AM 60.8 °F 48.2 °F 63% 30.42 in - WNW 11.5 mph - N/A   Clear
11:20 AM 62.6 °F 48.2 °F 59% 30.42 in 6.2 mi WNW 13.8 mph - N/A   Partly Cloudy
11:50 AM 64.4 °F 48.2 °F 56% 30.39 in - WNW 11.5 mph - N/A   Clear
12:20 PM 64.4 °F 46.4 °F 52% 30.39 in - West 12.7 mph - N/A   Clear
12:50 PM 64.4 °F 48.2 °F 56% 30.39 in - West 10.4 mph - N/A   Clear
1:20 PM 64.4 °F 50.0 °F 59% 30.39 in 6.2 mi SW 10.4 mph - N/A   Partly Cloudy
1:50 PM 66.2 °F 50.0 °F 56% 30.39 in 6.2 mi WSW 10.4 mph - N/A   Partly Cloudy
2:20 PM 68.0 °F 51.8 °F 56% 30.36 in 6.2 mi SW 11.5 mph - N/A   Unknown
2:50 PM 68.0 °F 51.8 °F 56% 30.36 in 6.2 mi WSW 11.5 mph - N/A   Partly Cloudy
3:20 PM 71.6 °F 50.0 °F 46% 30.36 in 6.2 mi West 12.7 mph - N/A   Partly Cloudy
3:50 PM 69.8 °F 46.4 °F 43% 30.33 in - West 16.1 mph - N/A   Clear
4:20 PM 68.0 °F 48.2 °F 49% 30.33 in - West 13.8 mph - N/A   Clear
4:50 PM 68.0 °F 48.2 °F 49% 30.33 in - West 13.8 mph - N/A   Clear
5:20 PM 66.2 °F 48.2 °F 52% 30.33 in - WNW 12.7 mph - N/A   Clear
5:50 PM 64.4 °F 48.2 °F 56% 30.33 in - West 11.5 mph - N/A   Clear
6:20 PM 64.4 °F 48.2 °F 56% 30.33 in - West 11.5 mph - N/A   Clear
6:50 PM 62.6 °F 50.0 °F 63% 30.33 in - WNW 12.7 mph - N/A   Clear
7:20 PM 60.8 °F 48.2 °F 63% 30.33 in - West 12.7 mph - N/A   Clear
7:50 PM 60.8 °F 48.2 °F 63% 30.33 in - West 13.8 mph - N/A   Clear
8:20 PM 59.0 °F 48.2 °F 67% 30.33 in - WNW 11.5 mph - N/A   Clear
8:50 PM 57.2 °F 48.2 °F 72% 30.33 in - West 16.1 mph - N/A   Clear
9:20 PM 57.2 °F 48.2 °F 72% 30.36 in - WNW 12.7 mph - N/A   Clear
9:50 PM 57.2 °F 50.0 °F 77% 30.36 in 6.2 mi West 12.7 mph - N/A   Partly Cloudy
10:20 PM 57.2 °F 50.0 °F 77% 30.33 in - West 9.2 mph - N/A   Clear
10:50 PM 57.2 °F 50.0 °F 77% 30.33 in - West 10.4 mph - N/A   Clear
11:20 PM 57.2 °F 50.0 °F 77% 30.33 in 6.2 mi West 10.4 mph - N/A   Partly Cloudy
11:50 PM 57.2 °F 50.0 °F 77% 30.33 in - WSW 6.9 mph - N/A   Clear